[[{"header":{"parameterUnit":"m.s-1","parameterCategory":1,"la1":30.2991,"la2":30.254,"lo1":-89.0895,"lo2":-89.0444,"dy":0.0017,"dx":0.0017,"nx":28,"ny":28,"refTime":"2024-03-03T03:00:00:Z","depth":0,"parameterNumber":2,"parameterNumberName":"U-component_of_WINDS"},"data":[0,0,0,0,0,0,0,0,0,0,0,0,0,0,0,0,0,0,0,0,0,0,0,0,0,0,0,0,0,0,0,0,0,0,0,0,0,0,0,0,0,0,0,0,0,0,0,0,0,0,0,0,0,0,0,0,0,0,-1.673,-1.673,0,-1.6719,-1.6719,-1.6719,-1.6668,-1.6667,-1.6665,-1.6664,-1.6657,-1.6658,-1.6659,0,0,0,0,0,0,0,0,0,0,0,0,0,-1.6709,-1.671,-1.673,-1.673,-1.6729,-1.6719,-1.6719,-1.6719,-1.6668,-1.6667,-1.6665,-1.6664,-1.6657,-1.6658,-1.6659,0,0,0,0,0,0,0,0,0,0,0,0,0,-1.671,-1.671,-1.673,-1.6703,-1.67,-1.6719,-1.6719,-1.6719,-1.6668,-1.6667,-1.6665,-1.6663,-1.6656,-1.6658,-1.6659,-1.6704,0,0,-1.6663,-1.6664,0,0,0,0,0,0,0,0,-1.671,-1.6711,-1.6707,-1.6705,-1.6702,-1.6693,-1.6709,-1.6714,-1.6669,-1.6681,-1.6664,-1.6662,-1.6671,-1.6671,-1.6673,-1.6704,-1.6704,-1.6663,-1.6664,-1.6665,-1.6665,0,0,0,0,0,0,0,-1.671,-1.6711,-1.6726,-1.6707,-1.6704,-1.6692,-1.669,-1.671,-1.6686,-1.6679,-1.6676,-1.6675,-1.6669,-1.6672,-1.6672,-1.6703,-1.6663,-1.6665,-1.6665,-1.6666,-1.6772,-1.6774,0,0,0,0,0,0,-1.6713,-1.6712,-1.6726,-1.6725,-1.6702,-1.6694,-1.6692,-1.6698,-1.6686,-1.6682,-1.6677,-1.6673,-1.667,-1.6671,-1.6672,-1.6725,-1.6665,-1.6666,-1.6667,-1.677,-1.6773,-1.6775,0,0,0,0,0,0,-1.6713,-1.6715,-1.6726,-1.6717,-1.6718,-1.6696,-1.6703,-1.6698,-1.6701,-1.6683,-1.6679,-1.6684,-1.6669,-1.667,-1.6697,-1.6724,-1.6667,-1.6668,-1.6768,-1.6771,-1.6774,-1.6831,0,0,0,0,0,0,-1.6713,-1.6715,-1.6732,-1.6718,-1.6719,-1.6751,-1.6705,-1.67,-1.6703,-1.6698,-1.6689,-1.6686,-1.6667,-1.6695,-1.6698,-1.6725,-1.6669,-1.6765,-1.6769,-1.6773,-1.6827,-1.6836,-1.6843,0,0,0,0,0,-1.6712,-1.6749,-1.6733,-1.6735,-1.6738,-1.6752,-1.6753,-1.673,-1.6706,-1.6722,-1.6711,-1.6686,-1.672,-1.6698,-1.6701,-1.6729,-1.6764,-1.6768,-1.6773,-1.6823,-1.6834,-1.6843,0,0,0,0,0,0,-1.6767,-1.6746,-1.6729,-1.6761,-1.6759,-1.6743,-1.6764,-1.6742,-1.6747,-1.6742,-1.6715,-1.6713,-1.6744,-1.6739,-1.6714,-1.6773,-1.6738,-1.6743,-1.6775,-1.6785,-1.6793,-1.6794,-1.667,0,0,0,0,0,-1.6783,-1.6795,-1.6776,-1.6807,-1.6807,-1.6786,-1.6791,-1.6773,-1.677,-1.6769,-1.676,-1.6759,-1.6769,-1.6777,-1.6785,-1.6825,-1.6823,-1.6846,-1.6854,-1.6861,-1.6867,-1.6889,-1.6899,-1.6789,-1.6789,-1.6789,0,0,-1.6816,-1.6806,-1.6815,-1.6818,-1.6814,-1.6828,-1.6785,-1.6802,-1.6813,-1.6772,-1.6797,-1.679,-1.6787,-1.6821,-1.6835,-1.6817,-1.6896,-1.6867,-1.6873,-1.6874,-1.6894,-1.6905,-1.6914,-1.6793,-1.6792,-1.6791,0,0,-1.6883,-1.6876,-1.6902,-1.6898,-1.6893,-1.6878,-1.6885,-1.6872,-1.6866,-1.689,-1.686,-1.6873,-1.6891,-1.6891,-1.6893,-1.696,-1.6938,-1.6964,-1.7008,-1.703,-1.7038,-1.7046,-1.7071,-1.7081,-1.6969,-1.6969,-1.6969,0,-1.6925,-1.6944,-1.6918,-1.6937,-1.6939,-1.6902,-1.6928,-1.6927,-1.6925,-1.6928,-1.6908,-1.693,-1.6925,-1.6959,-1.6976,-1.6978,-1.6985,-1.6965,-1.7039,-1.7046,-1.7053,-1.7077,-1.7087,-1.6973,-1.6972,-1.6972,-1.6971,0,-1.6997,-1.7011,-1.7032,-1.703,-1.7035,-1.7058,-1.7036,-1.7044,-1.7026,-1.7015,-1.704,-1.7033,-1.704,-1.7047,-1.703,-1.7078,-1.7068,-1.7044,-1.7008,-1.7067,-1.7089,-1.7098,-1.6977,-1.6976,-1.6975,-1.6974,0,0,-1.71,-1.7082,-1.7091,-1.709,-1.708,-1.7091,-1.7113,-1.7118,-1.7127,-1.7126,-1.7145,-1.7161,-1.7139,-1.7141,-1.7124,-1.7143,-1.7199,-1.7117,-1.7116,-1.7133,-1.7253,-1.7272,-1.7283,-1.7183,-1.7185,-1.7186,-1.7254,0,-1.7165,-1.7199,-1.7176,-1.7215,-1.7228,-1.7193,-1.7212,-1.7209,-1.7199,-1.721,-1.7198,-1.7211,-1.718,-1.7181,-1.7199,-1.7188,-1.7223,-1.7183,-1.7201,-1.7202,-1.7204,-1.7295,-1.7315,-1.7379,-1.7262,-1.7264,-1.7265,0,-1.7246,-1.7249,-1.7289,-1.7277,-1.7282,-1.7299,-1.7303,-1.7313,-1.731,-1.7301,-1.7304,-1.7282,-1.7303,-1.7268,-1.7298,-1.7271,-1.7277,-1.7273,-1.7275,-1.7277,-1.7238,-1.73,-1.7399,-1.741,-1.7278,-1.7277,-1.7276,0,-1.7318,-1.7332,-1.7358,-1.7358,-1.7345,-1.7358,-1.7354,-1.7348,-1.7353,-1.7357,-1.736,-1.7367,-1.7371,-1.7377,-1.7358,-1.7334,-1.7391,-1.7354,-1.7386,-1.7387,-1.7401,-1.74,-1.7503,-1.7403,-1.7402,-1.7402,-1.7402,0,-1.7395,-1.7421,-1.739,-1.7406,-1.7435,-1.7408,-1.7438,-1.743,-1.7425,-1.744,-1.741,-1.7425,-1.7398,-1.7411,-1.7396,-1.7424,-1.7426,-1.742,-1.7416,-1.7424,-1.7425,-1.7428,-1.7424,-1.7405,-1.7404,-1.7404,-1.7403,0,-1.7481,-1.7461,-1.7487,-1.7473,-1.747,-1.7492,-1.748,-1.7495,-1.7482,-1.7502,-1.7505,-1.7486,-1.7499,-1.748,-1.7491,-1.7481,-1.752,-1.7509,-1.7521,-1.7518,-1.7552,-1.755,-1.7662,-1.7676,-1.7566,-1.7567,-1.7568,0,-1.7531,-1.7551,-1.7538,-1.7545,-1.7542,-1.7555,-1.756,-1.7535,-1.7541,-1.7539,-1.7555,-1.7565,-1.7572,-1.7595,-1.7583,-1.7592,-1.7582,-1.762,-1.7583,-1.759,-1.7584,-1.7583,-1.7586,-1.7629,-1.763,-1.7631,-1.7632,0,-1.7624,-1.7613,-1.7621,-1.7626,-1.7632,-1.7635,-1.7636,-1.7644,-1.7617,-1.7627,-1.7639,-1.7645,-1.7656,-1.7668,-1.7673,-1.767,-1.7648,-1.7643,-1.7652,-1.766,-1.7667,-1.7665,-1.7544,-1.7641,-1.764,-1.764,-1.7639,-1.7639,-1.7695,-1.771,-1.7704,-1.7714,-1.7712,-1.7713,-1.7727,-1.7716,-1.7726,-1.7732,-1.7717,-1.7734,-1.7731,-1.7736,-1.7735,-1.7749,-1.7732,-1.7743,-1.7747,-1.775,-1.7756,-1.7664,-1.7749,-1.7749,-1.7749,-1.7749,-1.7748,0,-1.7787,-1.7781,-1.779,-1.7792,-1.78,-1.7776,-1.7776,-1.7785,-1.78,-1.7798,-1.7805,-1.7821,-1.7832,-1.782,-1.7829,-1.7843,-1.7833,-1.7846,-1.7846,-1.7845,-1.777,-1.7762,-1.7854,-1.7854,-1.7854,-1.7854,-1.7854,-1.7854,-1.7836,-1.7862,-1.785,-1.7875,-1.7869,-1.7885,-1.7887,-1.7888,-1.7887,-1.7905,-1.7913,-1.7905,-1.79,-1.7909,-1.7918,-1.7915,-1.792,-1.7938,-1.7931,-1.7861,-1.7851,-1.7841,-1.7834,-1.7939,-1.7939,-1.8006,-1.8006,-1.8007]},{"header":{"parameterUnit":"m.s-1","parameterCategory":1,"la1":30.2991,"la2":30.254,"lo1":-89.0895,"lo2":-89.0444,"dy":0.0017,"dx":0.0017,"nx":28,"ny":28,"refTime":"2024-03-03T03:00:00:Z","depth":0,"parameterNumber":3,"parameterNumberName":"V-component_of_WINDS"},"data":[0,0,0,0,0,0,0,0,0,0,0,0,0,0,0,0,0,0,0,0,0,0,0,0,0,0,0,0,0,0,0,0,0,0,0,0,0,0,0,0,0,0,0,0,0,0,0,0,0,0,0,0,0,0,0,0,0,0,0.5804,0.5803,0,0.5792,0.5792,0.5792,0.5781,0.5781,0.5781,0.5781,0.5767,0.5767,0.5767,0,0,0,0,0,0,0,0,0,0,0,0,0,0.5815,0.5815,0.5804,0.5803,0.5803,0.5792,0.5792,0.5792,0.5781,0.5781,0.5781,0.578,0.5767,0.5767,0.5767,0,0,0,0,0,0,0,0,0,0,0,0,0,0.5807,0.5814,0.5804,0.5796,0.5796,0.5792,0.5792,0.5792,0.5781,0.5781,0.5781,0.578,0.5767,0.5767,0.5767,0.5769,0,0,0.5766,0.5766,0,0,0,0,0,0,0,0,0.5808,0.5807,0.5798,0.5797,0.5796,0.5788,0.5791,0.5784,0.5781,0.5787,0.5781,0.578,0.5774,0.5773,0.5772,0.5768,0.5768,0.5766,0.5766,0.5765,0.5765,0,0,0,0,0,0,0,0.5808,0.5807,0.5799,0.5798,0.5797,0.5794,0.5792,0.579,0.5782,0.5786,0.5785,0.5784,0.5774,0.5772,0.5771,0.5768,0.5766,0.5765,0.5765,0.5765,0.5766,0.5766,0,0,0,0,0,0,0.581,0.5808,0.5799,0.5799,0.5802,0.5794,0.5792,0.5791,0.5782,0.578,0.5784,0.5784,0.5773,0.5772,0.5771,0.5773,0.5765,0.5765,0.5765,0.5766,0.5766,0.5766,0,0,0,0,0,0,0.581,0.5809,0.58,0.5803,0.5802,0.5794,0.5792,0.5791,0.5789,0.578,0.5779,0.5784,0.5772,0.5771,0.577,0.5772,0.5765,0.5765,0.5765,0.5766,0.5766,0.5776,0,0,0,0,0,0,0.5811,0.5809,0.581,0.5803,0.5801,0.5799,0.5792,0.579,0.5788,0.5787,0.578,0.5778,0.5772,0.577,0.5769,0.5771,0.5764,0.5765,0.5765,0.5766,0.5776,0.5777,0.5778,0,0,0,0,0,0.5811,0.5813,0.581,0.5809,0.5802,0.5799,0.5798,0.5792,0.5789,0.5789,0.5784,0.5778,0.5772,0.577,0.5769,0.5771,0.5765,0.5765,0.5766,0.5775,0.5777,0.5778,0,0,0,0,0,0,0.582,0.5812,0.5809,0.5809,0.5805,0.5798,0.5798,0.5794,0.579,0.5789,0.5781,0.5779,0.5779,0.5775,0.5773,0.5773,0.5768,0.5768,0.5775,0.5777,0.5778,0.5778,0.5764,0,0,0,0,0,0.5822,0.5821,0.5814,0.5815,0.5813,0.5806,0.5804,0.58,0.5795,0.5793,0.5788,0.5783,0.578,0.5778,0.5775,0.5776,0.5773,0.5776,0.5778,0.5779,0.5779,0.5779,0.578,0.5768,0.5768,0.5768,0,0,0.5826,0.5822,0.5821,0.5816,0.5813,0.5811,0.5805,0.5803,0.5802,0.5793,0.5791,0.5787,0.5782,0.5781,0.5781,0.5778,0.5782,0.5779,0.578,0.5779,0.5779,0.578,0.5781,0.5768,0.5768,0.5768,0,0,0.5833,0.583,0.583,0.5827,0.5822,0.5817,0.5818,0.5811,0.5808,0.5807,0.58,0.5798,0.5793,0.579,0.5787,0.5794,0.5788,0.5793,0.5798,0.5799,0.5799,0.58,0.5802,0.5803,0.5793,0.5793,0.5793,0,0.5838,0.5836,0.583,0.583,0.5828,0.5821,0.5821,0.5818,0.5812,0.581,0.5808,0.5802,0.5797,0.5796,0.5798,0.5796,0.5796,0.5793,0.58,0.5801,0.5801,0.5803,0.5804,0.5794,0.5794,0.5794,0.5793,0,0.5843,0.5842,0.5843,0.5838,0.5836,0.5835,0.583,0.5828,0.5824,0.582,0.5819,0.5814,0.5809,0.5809,0.5805,0.5807,0.5806,0.5802,0.5796,0.5803,0.5805,0.5805,0.5794,0.5794,0.5794,0.5794,0,0,0.5854,0.5847,0.5847,0.5845,0.584,0.5838,0.5838,0.5834,0.5833,0.583,0.5829,0.5825,0.5822,0.5819,0.5815,0.5815,0.582,0.5811,0.581,0.5812,0.5822,0.5825,0.5826,0.5817,0.5817,0.5817,0.5823,0,0.5859,0.5858,0.5853,0.5854,0.5852,0.5846,0.5846,0.5842,0.5839,0.5837,0.5833,0.583,0.5826,0.5824,0.5824,0.5819,0.5822,0.5819,0.5816,0.5815,0.5816,0.5827,0.5829,0.5834,0.5823,0.5823,0.5823,0,0.5865,0.5862,0.5863,0.5858,0.5857,0.5857,0.5853,0.5852,0.5848,0.5845,0.5843,0.5838,0.5837,0.5833,0.5831,0.5829,0.5828,0.5825,0.5825,0.5824,0.5819,0.5825,0.5836,0.5837,0.5824,0.5824,0.5824,0,0.5872,0.5869,0.5869,0.5867,0.5862,0.5862,0.5859,0.5855,0.5854,0.5851,0.5849,0.5846,0.5845,0.5842,0.5837,0.5834,0.5836,0.5831,0.5833,0.5833,0.5833,0.5833,0.5843,0.5833,0.5833,0.5833,0.5833,0,0.5878,0.5878,0.5872,0.5872,0.5872,0.5867,0.5867,0.5864,0.5861,0.586,0.5854,0.5853,0.5847,0.5845,0.5841,0.584,0.5839,0.5837,0.5836,0.5837,0.5837,0.5835,0.5834,0.5833,0.5833,0.5833,0.5833,0,0.5886,0.5882,0.5881,0.5876,0.5875,0.5876,0.5871,0.5871,0.5867,0.5866,0.5866,0.586,0.5858,0.5852,0.5849,0.5846,0.5846,0.5844,0.5847,0.5846,0.5849,0.5848,0.5857,0.5858,0.5848,0.5849,0.5849,0,0.589,0.589,0.5885,0.5885,0.5883,0.5881,0.588,0.5875,0.5874,0.587,0.587,0.5867,0.5865,0.5862,0.5857,0.5854,0.5852,0.5855,0.5851,0.5853,0.5851,0.5851,0.5851,0.5856,0.5856,0.5856,0.5856,0,0.5897,0.5895,0.5893,0.5891,0.589,0.5888,0.5885,0.5885,0.5879,0.5878,0.5876,0.5875,0.5871,0.5869,0.5866,0.5863,0.5858,0.5858,0.5858,0.5859,0.5861,0.5859,0.5849,0.5857,0.5857,0.5857,0.5857,0.5857,0.5902,0.5902,0.5899,0.5898,0.5896,0.5894,0.5893,0.589,0.5888,0.5886,0.5883,0.5881,0.5878,0.5873,0.5871,0.5869,0.5867,0.5867,0.5867,0.5867,0.5868,0.5862,0.5868,0.5868,0.5868,0.5868,0.5868,0,0.5908,0.5906,0.5905,0.5902,0.5901,0.5898,0.5896,0.5895,0.5894,0.5891,0.5889,0.5887,0.5885,0.5881,0.5878,0.5878,0.5876,0.5877,0.5877,0.5876,0.587,0.587,0.5879,0.5879,0.5879,0.5879,0.5879,0.5879,0.5911,0.5911,0.5909,0.5908,0.5906,0.5905,0.5903,0.5902,0.59,0.5898,0.5896,0.5894,0.589,0.5888,0.5886,0.5884,0.5883,0.5885,0.5883,0.5878,0.5877,0.5876,0.5875,0.5885,0.5885,0.589,0.589,0.589]}]]